2020-003G (45022 NORAD) Tracking and Keplerian Element Data

This shows tracking and keplerian element data for the satellite.

Feedback or suggestion? Click here.




ElementValue
Catalog45022
Name2020-003G
Epoch Orbit458
Epoch Day45.12808112
Epoch Year2020
RAAN113.4818
Inclination97.2958
Eccentricity0.0020416
Argument of Perigee185.9042
Mean Anonmoly174.1961
Mean Motion15.29503983
Decay Rate1.797E-05
L11 45022U 20003G 20045.12808112 .00001797 00000-0 65076-4 0 9994
L22 45022 97.2958 113.4818 0020416 185.9042 174.1961 15.29503983 4584



Live tracking and technical data element details for 2020-003G (NORAD 45022). 2020-003G can be tracked NOW for your location showing map with azimuth and elevation plus other details from your city location.







IsCatalogInMostPopularTable: catalog: 45022, numindb: 191
Update: records affected: 1



GetName: 45022 2020-003G

Hit Count: updated at: Mon, 05 Jun 2023 00:52:56 GMT